COSMOS 1428

导读

COSMOS 1428(宇宙1428)是苏联(CIS)于1983年1月12日发射入轨的宇宙系列卫星。该系列是苏联大规模开展的综合性卫星工程,涵盖军事侦察、空间科学实验、技术试验等多元任务。作为冷战时期苏联航天活动的产物,它延续了宇宙卫星系列的任务传统,承担特定空间探测或技术验证工作,印证了苏联在上世纪80年代稳定的航天发射能力,是该系列卫星发展历程中的一员。

基本信息
目录编号:
13757
目录名称:
COSMOS 1428
国际标识:
1983-001A
轨道中心:
EARTH
卫星名称:
COSMOS 1428
卫星全名:
--
卫星状态:
在轨 (已飞行15857 天)
发射日期:
1983-01-12 UTC
国别 :
俄罗斯(独联体) (CIS)
星等 :
--
轨道信息
数据来源 国际轨道数据
星历时间: 2026-06-12T13:21:41+0800
14小时前
查看轨道信息
半长轴: 7352.367km
偏心率: 0.0033283
轨道倾角: 82.913°
近地点辐角 256.355°
升交点赤经 45.451°
平近点角 222.648°
近地点: 949.759km
远地点: 998.701km
周期: 104.568分钟
每日圈数: 13.77089
详细信息
使用方式:
暂无
2D轨道图
3D轨道图
轨道高度分析图
轨道倾角分析图
轨道综合分析图
查看轨道综合分析图